Flag for Germany Weather past 2 weeks in Heide, Schleswig-Holstein, Germany

Now
52 °F

Cool.


Feels Like: 49 °F
Forecast: 50 / 58 °F
Wind: 8 mph from South

Location: Hohn

Current Time: Oct 25, 2014 at 1:52:19 AM

Latest Report: Oct 25, 2014 at 1:20 AM


Visibility: 3 mi

Pressure: 30.01 "Hg

Humidity: 88%

Dew point: 48 °F

Location of HeideLocation

Historic Weather in Heide — Graph

°F

Heide temperature yesterday

Maximum temperature yesterday: 57 °F (at 2:20 PM)
Minimum temperature yesterday: 52 °F (at 2:20 AM)
Average temperature yesterday: 54 °F

Past Weeks' High & Low Weather Summary

 TemperatureHumidityPressure
High64 °F (Oct 19, 1:20 PM)100% (Oct 11, 4:20 AM)30.15 "Hg (Oct 11, 4:20 AM)
Low43 °F (Oct 11, 7:20 AM)63% (Oct 20, 3:20 PM)29.30 "Hg (Oct 21, 7:20 PM)
Average55 °F89%29.82 "Hg
* Reported Oct 10 12:20 AM — Oct 25 12:20 AM, Heide, Weather by CustomWeather, © 2014

Note: Actual official high and low records may vary slightly from our data, if they occured in-between our weather recording intervals... More about our weather records

Advertising

Heide weather history for previous 24 hours

 ConditionsComfort  
Time TempWeatherWind HumidityBarometerVisibility
12:20 AM
Oct 25
52 °FCool.9 mph82%30.01 "Hg5 mi
11:20 PM
Oct 24
54 °FCool.9 mph77%30.01 "Hg5 mi
10:20 PM52 °FCool.7 mph88%30.04 "Hg4 mi
9:20 PM52 °FCool.8 mph82%30.04 "Hg6 mi
8:20 PM52 °FCool.8 mph82%30.04 "HgN/A
7:20 PM54 °FCool.8 mph77%30.04 "HgN/A
6:48 PM54 °FPartly sunny.8 mph77%30.04 "HgN/A
6:20 PM54 °FPartly sunny.10 mph77%30.04 "HgN/A
5:20 PM55 °FPartly sunny.9 mph72%30.04 "HgN/A
4:20 PM55 °FPartly sunny.10 mph77%30.07 "HgN/A
3:20 PM57 °FPartly sunny.12 mph72%30.07 "HgN/A
2:20 PM57 °FPartly sunny.15 mph72%30.07 "HgN/A
1:20 PM55 °FPartly sunny.13 mph72%30.09 "HgN/A
12:20 PM55 °FPartly sunny.12 mph72%30.09 "HgN/A
11:20 AM55 °FPartly sunny.13 mph72%30.09 "HgN/A
10:20 AM54 °FPartly sunny.10 mph82%30.09 "Hg6 mi
9:20 AM54 °FBroken clouds.10 mph82%30.09 "Hg5 mi
8:20 AM52 °FPassing clouds.9 mph88%30.09 "Hg5 mi
7:20 AM52 °FPassing clouds.9 mph94%30.09 "Hg5 mi
6:20 AM52 °FPassing clouds.9 mph94%30.09 "Hg5 mi
5:20 AM52 °FPassing clouds.9 mph94%30.09 "Hg5 mi
4:20 AM52 °FCool.9 mph94%30.09 "Hg3 mi
3:20 AM52 °FCool.8 mph94%30.09 "Hg3 mi
2:20 AM52 °FCool.7 mph94%30.12 "Hg3 mi
1:20 AM54 °FCool.8 mph88%30.12 "Hg3 mi
Weather by CustomWeather, © 2014

See weather overviewHow to use our weather pages